| time (UTC) | temp C | wind direction | speed KPH | gust KPH | rain 1hr cm | rain 24hr cm | rain mn cm | humidity % | barometer mb |
| 20260503220403 | 15 | 290 | 3.2 | 17.7 | 0.00 | 0.00 | 0.00 | 31 | 1011.3 |
| 20260503215346 | 15 | 294 | 3.2 | 16.1 | 0.00 | 0.00 | 0.00 | 31 | 1011.1 |
| 20260503214328 | 15 | 300 | 3.2 | 16.1 | 0.00 | 0.00 | 0.00 | 31 | 1011.0 |
| 20260503213309 | 15 | 300 | 3.2 | 16.1 | 0.00 | 0.00 | 0.00 | 31 | 1011.0 |
| 20260503212252 | 15 | 298 | 3.2 | 17.7 | 0.00 | 0.00 | 0.00 | 32 | 1011.0 |
| 20260503211235 | 15 | 298 | 3.2 | 17.7 | 0.00 | 0.00 | 0.00 | 32 | 1011.1 |
| 20260503210219 | 15 | 298 | 4.8 | 17.7 | 0.00 | 0.00 | 0.00 | 32 | 1011.1 |
| 20260503205202 | 15 | 315 | 4.8 | 14.5 | 0.00 | 0.00 | 0.00 | 32 | 1011.1 |
| 20260503204144 | 15 | 308 | 4.8 | 14.5 | 0.00 | 0.00 | 0.00 | 32 | 1011.1 |
| 20260503203124 | 15 | 310 | 3.2 | 14.5 | 0.00 | 0.00 | 0.00 | 32 | 1011.1 |
| 20260503202108 | 15 | 310 | 4.8 | 14.5 | 0.00 | 0.00 | 0.00 | 32 | 1011.1 |
| 20260503201051 | 15 | 310 | 3.2 | 14.5 | 0.00 | 0.00 | 0.00 | 32 | 1011.4 |
| 20260503200034 | 15 | 315 | 4.8 | 14.5 | 0.00 | 0.00 | 0.00 | 32 | 1011.4 |
| 20260503195018 | 15 | 302 | 4.8 | 19.3 | 0.00 | 0.00 | 0.00 | 32 | 1011.5 |
| 20260503194001 | 15 | 302 | 4.8 | 19.3 | 0.00 | 0.00 | 0.00 | 33 | 1011.4 |
| 20260503192942 | 15 | 302 | 4.8 | 19.3 | 0.00 | 0.00 | 0.00 | 34 | 1011.8 |
| 20260503191925 | 15 | 308 | 4.8 | 19.3 | 0.00 | 0.00 | 0.00 | 34 | 1011.6 |
| 20260503190907 | 15 | 308 | 4.8 | 20.9 | 0.00 | 0.00 | 0.00 | 34 | 1011.6 |
| 20260503185848 | 14 | 280 | 4.8 | 16.1 | 0.00 | 0.00 | 0.00 | 34 | 1011.8 |
| 20260503185045 | 14 | 324 | 4.8 | 16.1 | 0.00 | 0.00 | 0.00 | 35 | 1012.0 |
| 20260503183814 | 13 | 282 | 4.8 | 20.9 | 0.00 | 0.00 | 0.00 | 36 | 1012.0 |
| 20260503182750 | 13 | 278 | 4.8 | 19.3 | 0.00 | 0.00 | 0.00 | 36 | 1012.1 |
| 20260503181732 | 13 | 280 | 4.8 | 19.3 | 0.00 | 0.00 | 0.00 | 37 | 1012.1 |
| 20260503180708 | 13 | 278 | 4.8 | 20.9 | 0.00 | 0.00 | 0.00 | 38 | 1012.2 |
| 20260503175651 | 13 | 290 | 4.8 | 19.3 | 0.00 | 0.00 | 0.00 | 39 | 1012.2 |
| 20260503174635 | 13 | 294 | 4.8 | 19.3 | 0.00 | 0.00 | 0.00 | 40 | 1012.3 |
| 20260503173831 | 12 | 294 | 4.8 | 19.3 | 0.00 | 0.00 | 0.00 | 40 | 1012.4 |
| 20260503172748 | 12 | 292 | 4.8 | 19.3 | 0.00 | 0.00 | 0.00 | 41 | 1012.5 |
| 20260503171519 | 12 | 292 | 3.2 | 19.3 | 0.00 | 0.00 | 0.00 | 41 | 1012.5 |
| 20260503170501 | 12 | 290 | 4.8 | 19.3 | 0.00 | 0.00 | 0.00 | 41 | 1012.5 |
| 20260503150248 | 11 | 334 | 3.2 | 12.9 | 0.00 | 0.00 | 0.00 | 46 | 1013.1 |
| 20260503130727 | 8 | 330 | 4.8 | 17.7 | 0.00 | 0.00 | 0.00 | 55 | 1013.0 |
| 20260503110352 | 7 | 330 | 1.6 | 0.0 | 0.00 | 0.00 | 0.00 | 61 | 1012.3 |
| 20260503100207 | 7 | 330 | 1.6 | 0.0 | 0.00 | 0.00 | 0.00 | 61 | 1011.3 |
| 20260503080850 | 7 | 330 | 1.6 | 0.0 | 0.00 | 0.00 | 0.00 | 61 | 1010.8 |
| 20260503072716 | 7 | 330 | 1.6 | 0.0 | 0.00 | 0.00 | 0.00 | 60 | 1010.7 |
| 20260503071659 | 7 | 330 | 0.0 | 0.0 | 0.00 | 0.00 | 0.00 | 60 | 1010.7 |
| 20260503070643 | 7 | 330 | 0.0 | 0.0 | 0.00 | 0.00 | 0.00 | 60 | 1010.8 |
| 20260503054423 | 8 | 318 | 1.6 | 0.0 | 0.00 | 0.00 | 0.00 | 56 | 1011.1 |
| 20260503053406 | 8 | 320 | 0.0 | 0.0 | 0.00 | 0.00 | 0.00 | 56 | 1011.1 |
| 20260503052323 | 8 | 320 | 0.0 | 0.0 | 0.00 | 0.00 | 0.00 | 56 | 1011.2 |
| 20260503051304 | 8 | 322 | 0.0 | 0.0 | 0.00 | 0.00 | 0.00 | 56 | 1011.2 |
| 20260503050247 | 8 | 320 | 0.0 | 0.0 | 0.00 | 0.00 | 0.00 | 56 | 1011.2 |
| 20260503045230 | 8 | 320 | 1.6 | 0.0 | 0.00 | 0.00 | 0.00 | 56 | 1011.4 |
| 20260503044211 | 8 | 318 | 1.6 | 0.0 | 0.00 | 0.00 | 0.00 | 56 | 1011.5 |
| 20260503043154 | 8 | 320 | 1.6 | 0.0 | 0.00 | 0.00 | 0.00 | 56 | 1011.5 |
| 20260503042137 | 8 | 320 | 0.0 | 0.0 | 0.00 | 0.00 | 0.00 | 56 | 1011.5 |
| 20260503041117 | 8 | 320 | 0.0 | 0.0 | 0.00 | 0.00 | 0.00 | 55 | 1011.6 |
| 20260503040312 | 8 | 67 | 1.6 | 4.8 | 0.00 | 0.00 | 0.00 | 55 | 1011.6 |
| 20260503035042 | 8 | 314 | 0.0 | 0.0 | 0.00 | 0.00 | 0.00 | 55 | 1011.5 |
| 20260503034025 | 8 | 314 | 0.0 | 0.0 | 0.00 | 0.00 | 0.00 | 56 | 1011.5 |
| 20260503033008 | 8 | 312 | 0.0 | 0.0 | 0.00 | 0.00 | 0.00 | 56 | 1011.5 |
| 20260503032206 | 9 | 312 | 0.0 | 0.0 | 0.00 | 0.00 | 0.00 | 56 | 1011.5 |
| 20260503030935 | 9 | 310 | 1.6 | 0.0 | 0.00 | 0.00 | 0.00 | 55 | 1011.5 |
| 20260503025916 | 9 | 318 | 0.0 | 0.0 | 0.00 | 0.00 | 0.00 | 55 | 1011.5 |
| 20260503024834 | 10 | 320 | 0.0 | 0.0 | 0.00 | 0.00 | 0.00 | 54 | 1011.6 |
| 20260503024008 | 10 | 320 | 0.0 | 0.0 | 0.00 | 0.00 | 0.00 | 54 | 1011.6 |
| 20260503022735 | 10 | 320 | 0.0 | 0.0 | 0.00 | 0.00 | 0.00 | 54 | 1011.6 |
| 20260503021717 | 10 | 318 | 0.0 | 0.0 | 0.00 | 0.00 | 0.00 | 54 | 1011.6 |
| 20260503020916 | 10 | 322 | 0.0 | 0.0 | 0.00 | 0.00 | 0.00 | 53 | 1011.5 |
| 20260503015858 | 10 | 306 | 0.0 | 0.0 | 0.00 | 0.00 | 0.00 | 52 | 1011.5 |
| 20260503014627 | 10 | 304 | 0.0 | 0.0 | 0.00 | 0.00 | 0.00 | 52 | 1011.6 |
| 20260503013604 | 10 | 304 | 0.0 | 0.0 | 0.00 | 0.00 | 0.00 | 52 | 1011.4 |
| 20260503012548 | 10 | 302 | 0.0 | 0.0 | 0.00 | 0.00 | 0.00 | 51 | 1011.5 |
| 20260503011744 | 10 | 300 | 0.0 | 0.0 | 0.00 | 0.00 | 0.00 | 51 | 1011.5 |
| 20260503010514 | 11 | 300 | 0.0 | 0.0 | 0.00 | 0.00 | 0.00 | 50 | 1011.3 |
| 20260503005457 | 11 | 60 | 0.0 | 0.0 | 0.00 | 0.00 | 0.00 | 50 | 1011.1 |
| 20260503004440 | 11 | 60 | 0.0 | 0.0 | 0.00 | 0.00 | 0.00 | 50 | 1011.0 |
| 20260503003424 | 11 | 62 | 0.0 | 0.0 | 0.00 | 0.00 | 0.00 | 49 | 1010.9 |
| 20260503002407 | 11 | 62 | 0.0 | 0.0 | 0.00 | 0.00 | 0.00 | 48 | 1010.8 |
| 20260503001605 | 11 | 0 | 0.0 | 0.0 | 0.00 | 0.00 | 0.00 | 47 | 1010.8 |
| 20260503000333 | 12 | 64 | 0.0 | 0.0 | 0.00 | 0.00 | 0.00 | 46 | 1010.8 |
| 20260502235316 | 12 | 344 | 0.0 | 0.0 | 0.00 | 0.00 | 0.00 | 45 | 1010.7 |
| 20260502234258 | 12 | 346 | 0.0 | 0.0 | 0.00 | 0.00 | 0.00 | 44 | 1010.6 |
| 20260502233241 | 13 | 342 | 0.0 | 0.0 | 0.00 | 0.00 | 0.00 | 44 | 1010.6 |
| 20260502232441 | 13 | 344 | 0.0 | 0.0 | 0.00 | 0.00 | 0.00 | 43 | 1010.7 |
| 20260502231207 | 13 | 350 | 1.6 | 0.0 | 0.00 | 0.00 | 0.00 | 42 | 1010.6 |
| 20260502230148 | 13 | 348 | 1.6 | 0.0 | 0.00 | 0.00 | 0.00 | 42 | 1010.6 |
| 20260502225130 | 14 | 356 | 1.6 | 0.0 | 0.00 | 0.00 | 0.00 | 40 | 1010.5 |
| 20260502224043 | 15 | 356 | 1.6 | 0.0 | 0.00 | 0.00 | 0.00 | 39 | 1010.4 |
| 20260502223027 | 15 | 356 | 1.6 | 0.0 | 0.00 | 0.00 | 0.00 | 39 | 1010.3 |
| 20260502222010 | 15 | 354 | 1.6 | 0.0 | 0.00 | 0.00 | 0.00 | 38 | 1010.3 |